Temp
-11 -11 -10 -10 -10 -10 -10 -10 -10 -10 -10 -10 -10 -10 -10 -10 -10 -10 -10 -10 -10 -10 -10 -10 -10 -10 -10 -10 -10 -10 -10 -10 -10 -10 -10 -10 -10 -10 -10 -10 -10 -9 -9
-11 -11 -11 -11 -11 -11 -10 -10 -10 -10 -10 -10 -11 -11 -11 -11 -11 -11 -11 -11 -10 -10 -10 -10 -10 -10 -10 -10 -10 -10 -10 -10 -10 -10 -10 -10 -10 -10 -10 -10 -10 -10 -10
-11 -11 -11 -11 -11 -11 -10 -10 -10 -10 -10 -11 -11 -11 -11 -11 -11 -11 -11 -11 -11 -11 -11 -10 -10 -10 -10 -10 -10 -10 -10 -10 -10 -10 -10 -10 -10 -10 -10 -10 -10 -10 -10
-11 -11 -11 -11 -10 -10 -10 -10 -10 -10 -10 -11 -11 -11 -11 -11 -11 -11 -11 -11 -11 -11 -11 -11 -11 -11 -11 -11 -11 -10 -10 -10 -10 -10 -10 -10 -10 -10 -10 -10 -10 -10 -11
-10 -10 -10 -10 -10 -11 -10 -10 -10 -10 -11 -11 -11 -11 -11 -11 -11 -11 -11 -11 -11 -11 -11 -11 -11 -11 -11 -11 -11 -11 -11 -11 -11 -11 -11 -11 -11 -11 -11 -11 -11 -11 -11
-10 -10 -10 -10 -10 -10 -10 -10 -10 -11 -11 -11 -11 -11 -11 -11 -11 -11 -11 -11 -11 -11 -11 -11 -11 -11 -12 -11 -12 -12 -12 -12 -12 -12 -12 -12 -12 -12 -12 -11 -12 -11 -12
-10 -10 -10 -10 -11 -11 -11 -11 -11 -11 -12 -12 -12 -12 -11 -11 -12 -11 -12 -12 -12 -12 -12 -12 -12 -12 -12 -12 -13 -13 -13 -13 -13 -13 -13 -13 -12 -12 -12 -12 -12 -12 -12
-10 -11 -11 -11 -11 -11 -11 -11 -12 -12 -12 -12 -12 -12 -12 -12 -12 -12 -12 -12 -12 -13 -13 -13 -13 -13 -13 -13 -14 -14 -14 -14 -14 -14 -13 -13 -13 -13 -12 -12 -13 -13 -12
-11 -11 -11 -11 -11 -12 -12 -12 -12 -12 -12 -12 -12 -12 -12 -12 -12 -13 -13 -13 -13 -13 -13 -13 -14 -14 -14 -14 -14 -14 -15 -14 -14 -14 -14 -14 -14 -13 -13 -13 -13 -13 -13
-11 -11 -11 -12 -12 -13 -12 -12 -12 -12 -12 -13 -13 -13 -12 -12 -12 -11 -12 -13 -13 -13 -14 -14 -15 -15 -15 -15 -14 -14 -14 -14 -14 -14 -14 -14 -14 -13 -13 -13 -13 -13 -13
-11 -11 -12 -12 -13 -13 -13 -13 -13 -13 -13 -13 -13 -13 -13 -13 -13 -12 -12 -12 -13 -14 -15 -15 -15 -15 -15 -14 -14 -14 -14 -14 -14 -13 -13 -13 -13 -13 -13 -13 -13 -13 -13
-12 -12 -13 -13 -13 -13 -13 -14 -14 -14 -13 -13 -13 -13 -13 -13 -13 -13 -13 -13 -13 -14 -14 -15 -15 -15 -15 -14 -14 -14 -14 -14 -14 -14 -14 -14 -14 -14 -14 -13 -13 -13 -13
-13 -13 -13 -13 -14 -14 -14 -14 -14 -14 -14 -13 -13 -13 -13 -13 -14 -14 -15 -14 -14 -15 -15 -15 -14 -14 -14 -15 -15 -15 -14 -14 -15 -15 -16 -16 -16 -17 -18 -18 -17 -17 -17
-14 -14 -14 -14 -14 -14 -14 -14 -14 -14 -14 -14 -14 -14 -14 -15 -15 -16 -16 -16 -15 -15 -15 -15 -15 -15 -15 -15 -15 -15 -15 -16 -16 -18 -19 -19 -20 -20 -20 -21 -21 -20 -20
-14 -14 -14 -14 -14 -14 -14 -14 -14 -14 -14 -14 -14 -15 -15 -16 -16 -16 -16 -16 -16 -15 -15 -15 -15 -15 -16 -16 -16 -17 -17 -19 -21 -23 -23 -23 -23 -23 -24 -23 -22 -23 -22
-14 -14 -14 -15 -15 -15 -15 -15 -15 -15 -15 -15 -15 -16 -16 -17 -17 -17 -17 -17 -17 -16 -16 -16 -16 -16 -16 -17 -18 -20 -22 -24 -25 -26 -26 -27 -26 -26 -25 -25 -24 -24 -24
-15 -15 -15 -15 -15 -15 -15 -15 -15 -15 -15 -16 -16 -17 -17 -17 -17 -17 -17 -17 -17 -17 -17 -16 -17 -17 -18 -20 -21 -23 -25 -26 -27 -27 -27 -27 -26 -26 -26 -26 -26 -26 -26
-15 -15 -15 -15 -15 -15 -16 -15 -15 -15 -16 -17 -17 -17 -17 -17 -17 -17 -17 -17 -17 -17 -18 -18 -18 -21 -23 -24 -25 -26 -27 -27 -27 -27 -27 -26 -27 -27 -27 -27 -26 -26 -26
-15 -15 -16 -16 -16 -16 -16 -16 -16 -16 -17 -17 -17 -17 -17 -17 -17 -18 -18 -17 -18 -19 -20 -22 -23 -25 -25 -26 -27 -27 -27 -26 -26 -27 -27 -27 -26 -26 -27 -27 -27 -27 -27
-16 -16 -16 -16 -16 -16 -16 -16 -17 -17 -17 -18 -18 -18 -18 -18 -18 -18 -18 -19 -19 -21 -24 -26 -26 -27 -27 -26 -27 -27 -25 -26 -27 -28 -27 -27 -27 -27 -27 -27 -27 -28 -28
-16 -16 -17 -16 -16 -16 -17 -17 -17 -18 -18 -17 -18 -18 -18 -18 -18 -19 -20 -21 -23 -25 -26 -27 -27 -27 -27 -27 -27 -27 -27 -27 -28 -29 -28 -29 -27 -28 -28 -28 -27 -28 -29
-17 -17 -17 -17 -17 -17 -17 -17 -18 -18 -18 -18 -18 -18 -18 -19 -20 -20 -22 -25 -26 -27 -28 -28 -28 -28 -28 -28 -28 -27 -27 -28 -28 -29 -28 -30 -28 -29 -29 -28 -28 -29 -30
-17 -17 -17 -17 -17 -17 -18 -18 -18 -18 -18 -18 -18 -18 -19 -20 -21 -23 -25 -26 -27 -29 -30 -30 -29 -29 -29 -29 -28 -27 -28 -27 -28 -28 -27 -27 -29 -29 -28 -28 -29 -30 -30
-17 -17 -17 -17 -18 -18 -18 -18 -18 -18 -18 -18 -19 -20 -21 -21 -24 -25 -26 -27 -28 -30 -30 -30 -30 -29 -28 -28 -27 -27 -27 -26 -27 -27 -25 -26 -27 -27 -27 -28 -29 -29 -30
-17 -17 -18 -18 -18 -18 -18 -18 -18 -18 -19 -19 -20 -21 -23 -25 -26 -26 -27 -27 -29 -29 -29 -29 -29 -28 -28 -28 -27 -26 -25 -25 -25 -26 -25 -26 -26 -27 -28 -29 -29 -29 -29
-18 -18 -18 -19 -18 -18 -18 -18 -19 -19 -19 -20 -21 -24 -26 -26 -27 -27 -27 -28 -28 -28 -28 -28 -28 -28 -28 -27 -26 -25 -25 -25 -25 -26 -25 -26 -26 -26 -28 -28 -29 -29 -29
Height
5804 5800 5798 5796 5794 5793 5791 5788 5785 5782 5778 5775 5772 5769 5766 5764 5761 5760 5757 5754 5752 5750 5747 5745 5744 5741 5740 5739 5737 5735 5733 5732 5730 5730 5728 5728 5728 5727 5726 5726 5725 5725 5725
5798 5794 5792 5790 5787 5786 5784 5781 5778 5775 5771 5768 5765 5762 5759 5757 5754 5751 5748 5745 5744 5741 5739 5738 5735 5733 5730 5729 5727 5725 5722 5720 5720 5719 5717 5716 5714 5714 5714 5714 5713 5713 5713
5790 5788 5786 5784 5782 5780 5777 5774 5771 5767 5764 5760 5757 5755 5752 5750 5747 5743 5740 5737 5735 5732 5729 5727 5725 5723 5721 5718 5716 5713 5711 5709 5706 5705 5703 5702 5702 5701 5700 5698 5698 5698 5698
5783 5782 5780 5778 5776 5773 5770 5767 5763 5759 5756 5753 5749 5746 5743 5741 5738 5734 5731 5729 5726 5722 5719 5717 5714 5711 5709 5706 5702 5700 5697 5695 5692 5690 5688 5686 5685 5684 5683 5682 5680 5681 5681
5777 5775 5773 5770 5768 5765 5762 5758 5755 5751 5748 5745 5742 5739 5735 5732 5728 5725 5721 5719 5715 5712 5709 5705 5702 5698 5696 5692 5689 5685 5682 5679 5677 5674 5672 5669 5667 5664 5663 5662 5661 5660 5660
5770 5768 5766 5763 5761 5758 5754 5750 5746 5742 5740 5737 5734 5730 5726 5723 5719 5716 5712 5708 5704 5700 5696 5692 5688 5683 5679 5675 5671 5668 5664 5661 5658 5656 5654 5650 5647 5645 5642 5641 5640 5639 5639
5764 5761 5758 5755 5752 5748 5745 5741 5737 5732 5729 5728 5725 5721 5716 5712 5709 5705 5700 5695 5690 5686 5680 5675 5670 5665 5661 5656 5651 5646 5643 5639 5636 5634 5632 5628 5625 5623 5620 5618 5617 5615 5615
5757 5753 5750 5747 5742 5738 5734 5731 5727 5723 5719 5717 5714 5712 5710 5704 5699 5694 5687 5682 5676 5671 5665 5659 5653 5647 5642 5638 5633 5627 5622 5617 5613 5609 5606 5602 5599 5596 5594 5593 5592 5590 5589
5749 5745 5742 5737 5732 5728 5724 5721 5718 5714 5710 5705 5702 5698 5695 5693 5690 5686 5679 5671 5665 5658 5651 5644 5637 5630 5624 5618 5612 5607 5601 5595 5590 5584 5580 5575 5571 5568 5565 5563 5561 5560 5560
5740 5736 5732 5728 5723 5719 5715 5711 5708 5704 5700 5695 5689 5683 5676 5671 5666 5668 5666 5657 5649 5642 5634 5627 5619 5611 5604 5598 5591 5584 5577 5571 5564 5558 5552 5546 5541 5537 5534 5531 5529 5528 5526
5731 5727 5723 5718 5714 5710 5706 5701 5697 5693 5689 5684 5678 5672 5665 5656 5647 5639 5637 5635 5632 5625 5617 5608 5598 5589 5580 5572 5564 5557 5548 5540 5532 5524 5517 5510 5505 5500 5496 5494 5492 5491 5490
5722 5717 5713 5709 5706 5701 5697 5692 5687 5682 5676 5670 5663 5655 5648 5640 5633 5625 5618 5611 5602 5598 5591 5585 5576 5565 5555 5544 5534 5524 5515 5506 5496 5486 5478 5470 5463 5457 5454 5451 5450 5450 5450
5712 5708 5704 5701 5697 5692 5688 5683 5677 5671 5664 5656 5648 5640 5631 5621 5612 5603 5596 5592 5586 5582 5573 5562 5546 5531 5520 5510 5500 5488 5480 5469 5457 5447 5437 5426 5420 5415 5411 5409 5406 5405 5407
5704 5700 5696 5691 5687 5683 5678 5672 5666 5658 5650 5641 5632 5623 5614 5605 5596 5586 5575 5565 5563 5560 5554 5542 5526 5506 5493 5479 5466 5451 5441 5429 5417 5407 5397 5389 5384 5379 5374 5371 5370 5368 5367
5695 5691 5686 5682 5678 5673 5667 5660 5653 5644 5635 5625 5616 5607 5598 5589 5580 5569 5557 5544 5530 5524 5531 5523 5501 5484 5465 5448 5434 5417 5405 5391 5381 5371 5362 5355 5349 5345 5340 5337 5336 5334 5335
5685 5681 5677 5672 5667 5661 5654 5646 5638 5628 5619 5609 5599 5591 5581 5572 5562 5550 5537 5523 5506 5491 5487 5491 5477 5455 5438 5414 5397 5380 5366 5356 5349 5343 5334 5327 5321 5316 5312 5310 5306 5304 5303
5675 5672 5667 5661 5655 5648 5640 5632 5623 5613 5603 5593 5583 5574 5564 5553 5541 5528 5514 5499 5482 5459 5442 5455 5436 5421 5404 5383 5370 5354 5340 5327 5319 5318 5312 5303 5295 5289 5284 5283 5280 5278 5277
5666 5661 5656 5649 5643 5635 5627 5617 5608 5597 5587 5577 5567 5556 5544 5533 5519 5504 5488 5472 5455 5435 5407 5394 5401 5382 5366 5356 5344 5335 5326 5315 5299 5291 5283 5276 5269 5264 5262 5258 5255 5253 5250
5656 5650 5644 5637 5630 5622 5612 5602 5591 5581 5571 5561 5549 5537 5524 5510 5496 5479 5461 5442 5423 5404 5382 5357 5353 5349 5339 5326 5320 5314 5306 5297 5284 5269 5261 5252 5246 5242 5238 5235 5232 5230 5228
5645 5638 5631 5624 5615 5606 5596 5585 5575 5566 5555 5543 5530 5516 5501 5484 5467 5449 5430 5410 5389 5368 5351 5336 5325 5319 5311 5305 5293 5284 5283 5272 5262 5250 5243 5233 5229 5224 5219 5215 5213 5211 5210
5633 5626 5619 5609 5599 5589 5579 5570 5560 5550 5538 5524 5510 5494 5477 5458 5438 5418 5395 5375 5354 5338 5326 5312 5301 5291 5283 5277 5269 5264 5257 5253 5245 5235 5229 5223 5216 5210 5205 5199 5197 5195 5193
5620 5613 5604 5595 5584 5574 5564 5554 5542 5532 5518 5503 5488 5471 5451 5431 5413 5392 5368 5348 5330 5312 5300 5285 5275 5266 5261 5253 5250 5246 5242 5238 5237 5225 5215 5215 5203 5201 5192 5187 5185 5183 5182
5607 5598 5588 5578 5569 5559 5549 5538 5526 5513 5498 5481 5463 5445 5427 5404 5382 5363 5348 5331 5315 5299 5281 5268 5260 5253 5246 5243 5240 5237 5232 5226 5223 5217 5205 5206 5195 5192 5183 5180 5176 5176 5175
5593 5583 5573 5564 5554 5543 5532 5521 5508 5495 5478 5459 5439 5417 5396 5377 5357 5340 5325 5313 5300 5285 5272 5262 5253 5246 5241 5236 5231 5226 5222 5218 5213 5207 5198 5198 5190 5184 5177 5172 5172 5170 5168
5579 5570 5559 5549 5539 5528 5515 5503 5490 5476 5458 5438 5415 5392 5368 5352 5337 5321 5309 5299 5287 5276 5267 5256 5248 5241 5235 5229 5223 5219 5216 5213 5209 5201 5193 5190 5184 5179 5173 5168 5168 5166 5164
5567 5557 5546 5535 5524 5511 5497 5483 5467 5449 5434 5416 5397 5371 5351 5331 5318 5307 5296 5288 5280 5270 5262 5255 5248 5240 5232 5226 5221 5215 5211 5207 5202 5196 5186 5183 5177 5174 5170 5165 5164 5163 5160
Wind_Speed
31 34 36 36 36 33 32 32 35 37 36 37 36 35 35 35 35 34 34 35 35 37 38 40 41 43 43 43 42 43 43 44 45 46 47 47 47 47 47 47 47 47 47
30 32 31 29 30 33 33 33 36 37 35 34 33 33 34 34 35 36 37 37 38 39 41 42 43 44 46 46 46 47 48 50 50 50 52 53 53 54 54 54 54 54 54
28 26 27 27 27 30 32 33 35 36 35 34 34 35 35 36 37 38 40 41 41 42 44 45 46 47 48 49 50 51 53 54 56 57 58 58 58 57 58 59 59 58 59
24 25 26 28 30 32 33 36 38 38 36 35 35 36 37 38 39 41 42 43 44 45 47 48 49 50 51 53 56 58 60 62 63 64 65 65 66 66 65 65 66 65 64
25 27 29 33 33 35 38 40 40 39 36 37 38 39 40 40 42 43 44 46 47 48 50 53 55 57 60 62 64 66 67 68 68 70 71 72 73 73 72 71 71 72 71
29 32 34 37 37 39 40 41 42 41 38 38 39 40 41 41 43 44 47 49 52 54 57 60 62 64 66 67 68 70 71 72 73 73 73 75 76 76 77 77 77 77 77
32 35 38 39 40 40 40 43 44 43 41 39 39 41 43 45 47 50 53 55 58 61 64 66 68 69 69 71 72 74 75 76 78 79 79 80 81 82 83 83 84 85 85
34 37 40 41 42 42 44 43 40 39 41 42 43 45 45 48 51 54 57 60 63 64 66 68 70 71 73 73 74 75 76 78 79 80 82 84 85 87 89 89 90 90 92
37 40 41 42 43 43 40 38 40 42 44 47 49 51 53 53 54 55 58 61 64 65 66 68 70 71 73 74 75 76 78 80 82 84 86 88 90 92 94 95 96 97 97
40 40 42 43 42 39 40 41 43 45 47 49 54 58 62 65 66 65 63 64 65 67 67 67 68 70 73 75 78 81 84 85 87 90 93 94 96 98 99 101 102 103 105
40 42 43 41 40 41 42 45 48 50 52 55 57 60 65 68 71 75 74 72 66 63 64 68 72 76 80 83 86 89 92 94 97 100 102 104 105 105 107 107 107 108 109
42 42 40 41 43 43 45 47 50 52 55 58 63 65 67 70 71 72 73 73 75 73 74 75 80 84 88 92 96 100 102 105 107 109 109 110 111 111 111 111 111 110 110
40 40 41 43 44 45 47 49 52 56 60 63 66 69 71 71 72 72 72 74 76 77 80 82 89 95 100 103 107 110 113 115 116 115 114 112 111 108 106 104 104 104 103
39 41 43 44 45 48 50 54 58 61 64 67 70 71 70 69 69 72 76 82 83 84 85 90 96 104 109 113 117 120 121 120 117 113 109 107 104 101 99 96 93 92 93
41 43 44 46 48 50 55 58 61 65 69 71 70 69 68 70 72 78 84 90 96 98 93 96 105 111 117 121 122 122 117 109 102 98 96 95 93 88 85 85 84 82 82
43 44 46 48 51 56 58 62 67 70 72 70 68 69 71 74 79 86 92 98 104 109 109 108 112 118 121 123 116 106 98 92 87 81 80 80 81 80 79 77 77 75 74
45 47 49 52 56 59 63 68 72 72 70 68 69 71 75 81 87 92 97 103 108 114 120 116 119 120 113 104 95 90 85 83 80 77 78 81 82 80 74 70 70 72 73
48 50 51 56 59 63 68 72 73 70 68 69 72 77 83 87 92 98 104 108 114 120 126 127 117 100 87 80 77 73 72 73 79 83 84 78 69 67 68 69 71 71 71
50 52 56 59 63 68 72 72 68 67 68 72 78 83 89 94 99 104 110 117 121 124 119 108 97 85 78 75 72 70 71 73 78 73 64 66 67 65 63 62 62 61 61
53 55 58 63 68 72 71 66 66 68 72 78 84 90 96 103 108 112 117 122 124 113 100 93 90 85 81 77 77 77 71 70 57 59 58 56 54 54 53 53 52 52 51
55 58 63 68 72 69 66 66 68 72 77 83 91 97 103 108 113 117 123 118 103 96 93 91 87 84 80 77 76 71 60 49 42 40 42 43 47 48 48 46 42 37 36
58 63 68 70 67 65 66 69 73 77 83 91 96 103 109 114 117 118 105 96 94 91 86 81 77 72 67 64 55 44 40 32 28 33 42 35 45 41 41 39 31 28 23
61 67 67 64 64 66 69 74 78 84 92 97 104 111 113 116 111 98 91 88 82 75 68 65 58 50 44 39 36 29 31 33 30 30 41 34 39 36 38 30 22 15 18
66 65 62 63 65 70 75 79 83 90 98 103 109 113 113 105 93 89 85 75 69 58 51 44 40 38 35 29 34 34 30 25 24 28 30 22 30 32 31 20 14 14 19
64 59 61 65 69 74 79 85 90 97 101 106 111 110 100 90 87 79 71 64 50 39 37 37 35 32 35 38 37 29 25 23 20 25 32 27 27 27 20 16 12 14 20
57 59 64 69 73 78 86 92 96 101 105 110 107 91 85 83 74 68 58 47 39 36 28 25 30 35 34 31 29 29 29 28 27 25 31 29 28 18 15 19 16 17 22
Wind_Direction
296 293 292 293 291 295 292 292 294 295 295 293 290 288 286 284 282 281 279 278 277 278 279 278 278 277 277 276 276 274 272 270 268 268 269 268 268 267 266 265 265 265 265
297 295 291 294 291 291 293 295 298 298 295 293 291 289 288 287 286 285 283 282 281 279 276 276 276 277 277 277 276 275 274 274 273 271 270 269 269 269 269 269 268 267 267
298 298 297 298 295 294 295 296 299 298 295 291 289 288 286 285 285 284 283 283 283 283 282 282 280 279 277 276 276 276 276 275 275 274 273 272 271 271 271 271 271 270 269
295 297 301 302 300 298 297 299 300 298 294 291 289 288 286 285 284 283 283 283 284 284 284 284 283 283 282 282 282 281 279 278 276 275 275 274 273 272 272 271 271 270 269
295 299 299 303 301 300 302 304 302 299 294 290 288 287 286 285 285 285 285 285 285 284 284 285 284 284 283 281 280 279 278 277 276 275 274 274 273 273 273 272 271 270 269
289 294 297 300 299 299 301 301 298 296 292 289 288 287 286 285 285 286 286 287 287 287 286 286 286 286 286 285 284 282 281 279 278 276 276 275 274 274 273 272 271 270 270
291 292 295 297 296 297 297 297 295 294 293 291 289 288 289 290 291 291 291 290 290 291 292 292 293 292 290 288 286 285 284 283 281 280 279 278 276 274 273 272 271 270 269
290 294 296 296 296 297 296 296 296 294 292 290 290 290 290 293 294 295 295 295 295 295 294 293 291 290 289 288 287 286 285 284 283 282 280 278 276 274 272 271 270 269 269
296 296 295 296 297 299 299 297 295 294 294 294 294 294 293 293 293 292 293 293 293 292 292 291 291 291 290 290 289 288 287 286 285 284 282 281 279 277 275 273 271 270 268
294 295 297 297 298 298 297 296 296 296 297 298 300 301 301 301 299 296 294 294 293 293 294 295 295 294 293 292 291 290 288 287 286 285 283 281 279 277 275 273 271 269 268
295 296 297 298 298 298 298 299 301 301 301 301 301 301 300 300 300 299 298 296 295 296 296 297 297 296 296 295 294 294 293 292 291 290 287 284 283 280 278 275 272 270 267
294 295 296 297 297 298 300 301 302 302 301 301 301 300 300 299 299 299 299 300 300 300 300 301 300 299 299 298 298 298 297 296 294 293 290 286 283 281 279 277 274 270 268
293 294 295 296 297 299 300 301 301 301 301 301 302 303 303 302 302 303 303 300 300 302 303 303 303 303 303 302 301 300 299 297 295 292 289 286 283 281 279 277 275 273 270
292 293 295 296 297 299 300 301 301 301 303 303 304 304 303 303 302 302 302 302 303 303 304 304 304 303 302 301 301 299 298 296 293 289 286 284 283 281 280 278 276 274 271
293 294 294 296 298 299 300 300 302 304 304 305 305 304 302 300 300 301 302 303 304 305 305 305 303 301 301 300 299 298 296 291 289 288 287 285 284 283 281 279 277 273 270
293 293 295 297 298 299 301 303 303 305 306 306 305 302 301 301 302 304 305 305 304 303 303 303 301 301 300 300 298 295 292 291 289 290 289 288 287 285 282 280 278 274 270
294 296 296 297 298 302 303 304 305 307 307 306 304 303 303 305 306 306 305 305 304 303 303 303 303 302 300 297 295 293 293 293 293 291 291 289 287 286 284 280 276 274 271
296 294 295 297 300 302 303 306 307 307 307 306 305 306 308 307 307 307 306 305 305 305 305 305 305 302 299 296 294 293 292 292 293 294 292 291 287 283 280 279 277 275 271
293 294 296 301 302 304 306 307 307 308 308 308 309 310 310 310 309 308 307 307 307 307 307 304 304 303 301 298 296 294 292 293 294 293 291 288 287 285 281 279 278 277 273
294 297 301 302 304 306 307 307 309 309 310 311 312 313 312 312 311 311 310 309 309 307 305 305 305 302 299 298 296 296 298 298 295 293 291 289 288 286 286 284 281 279 275
298 302 302 304 306 307 308 309 309 310 311 313 315 315 314 314 313 313 312 311 308 308 307 304 302 299 297 295 294 297 300 299 296 293 289 292 292 294 294 293 292 287 278
301 302 303 306 307 308 308 309 311 312 312 314 314 315 316 315 314 314 311 311 310 309 307 304 302 301 299 299 299 301 301 299 299 296 292 296 298 303 302 297 296 288 285
302 304 307 308 308 308 310 311 311 313 314 314 315 316 315 316 315 313 313 311 311 310 307 307 307 306 305 305 307 307 309 306 303 296 290 298 298 307 298 298 286 289 309
305 307 308 308 309 311 312 312 313 315 317 316 315 317 318 316 315 314 314 315 316 313 312 312 311 310 313 316 316 319 318 315 307 297 307 332 302 305 308 287 286 321 321
307 308 308 310 312 312 313 314 316 318 317 318 319 319 317 316 316 316 317 318 321 321 319 316 318 322 322 322 325 333 335 333 323 305 308 316 314 318 306 281 304 330 317
307 308 310 312 313 314 317 317 318 319 320 320 321 318 317 317 317 317 318 322 325 323 324 324 320 319 324 330 334 336 335 334 331 324 316 309 304 318 306 291 303 315 327